Погода в Нысе

Польша     50°28′26″N   17°19′42″E
темп.,
°C
ветер,
м/с
пор.,
м/с
влажн.,
%
обл.,
%
осадки,
мм/ч
давл.,
гПа
погр.,
м
20 января, чт
чт2001:00+2зюз81776100 0.0 1014893
04:00+2зюз101887100 0.0 1013621
07:00+2з9158474 0.1 1012756
10:00+2з101764100 0.1 10121387
13:00+1зсз916605 0.9 10141871
16:00−1зсз915656 0.0 1015994
19:00−2з6126770 0.0 1015522
22:00−2зсз51094100 0.8 1017729
21 января, пт
пт2101:00−2сз81480100 1.6 1018926
04:00−4зсз8147792 0.1 1021873
07:00−3зсз8147196 0.2 1021971
10:00−2зсз8136321 0.0 10221186
13:00−1зсз9136697 0.2 10211775
16:00−2сз81379100 0.8 10221033
19:00−2сз8147196 1.2 1022974
22:00−1зсз71467100 0.1 1023784
22 января, сб
сб2201:00−1зсз61461100 0.1 1021550
04:00−1зсз51187100 0.1 1020695
07:00−2ссз61096100 0.6 1022790
10:00−1сз487910 0.3 1026855
13:000сз56665 0.4 1026993
16:00−3зсз35805 0.0 102781
19:00−4з358738 0.0 102875
22:00−4зюз358491 0.0 102989
23 января, вс
вс2301:00−2з3781100 0.0 1028242
04:00−2зсз2498100 0.6 1029292
07:00−2з2498100 2.3 1030251
10:00−1ссз2395100 0.9 1031350
13:00−1с238999 1.3 1032495
16:00−1ссз228774 0.1 103237
19:00−3сз119352 0.1 103410
22:00−4зсз019568 0.0 103521
24 января, пн
пн2401:00−4з119640 0.0 103511
04:00−6юз11956 0.0 103511
07:00−7юз219598 0.0 103512
10:00−3ююз1187100 0.0 103574
13:000ю1281100 0.0 1034179
16:00−1ююз1199100 0.2 103329
19:000юз2599100 0.9 1032188
22:00+1зюз3694100 0.3 1031130